Time,TemperatureF,DewpointF,PressureIn,WindDirection,WindDirectionDegrees,WindSpeedMPH,WindSpeedGustMPH,Humidity,HourlyPrecipIn,Conditions,Clouds,dailyrainin,SoftwareType,DateUTC
2013-02-17 00:05:00,34.7,6.4,23.95,SW,223,2.7,3.1,30,0.00,,---,0.00,VWS V14.01,2013-02-17 07:05:00,
2013-02-17 00:11:00,34.9,6.6,23.95,West,274,0.0,0.0,30,0.00,,---,0.00,VWS V14.01,2013-02-17 07:11:00,
2013-02-17 00:17:00,34.3,6.1,23.95,West,280,0.0,0.0,30,0.00,,---,0.00,VWS V14.01,2013-02-17 07:17:00,
2013-02-17 00:23:00,33.4,6.1,23.95,West,280,0.0,0.0,31,0.00,,---,0.00,VWS V14.01,2013-02-17 07:23:00,
2013-02-17 00:29:00,32.5,5.3,23.95,West,278,2.7,2.7,31,0.00,,---,0.00,VWS V14.01,2013-02-17 07:29:00,
2013-02-17 00:34:00,32.2,5.0,23.95,West,278,0.0,0.0,31,0.00,,---,0.00,VWS V14.01,2013-02-17 07:34:00,
2013-02-17 00:39:00,31.5,4.3,23.95,West,264,0.0,3.1,31,0.00,,---,0.00,VWS V14.01,2013-02-17 07:39:00,
2013-02-17 00:45:00,31.1,4.0,23.95,West,264,0.0,0.0,31,0.00,,---,0.00,VWS V14.01,2013-02-17 07:45:00,
2013-02-17 00:51:00,30.7,3.7,23.95,West,262,0.0,0.0,31,0.00,,---,0.00,VWS V14.01,2013-02-17 07:51:00,
2013-02-17 00:57:00,30.2,3.9,23.95,West,262,0.0,0.0,32,0.00,,---,0.00,VWS V14.01,2013-02-17 07:57:00,
2013-02-17 01:08:00,29.3,3.8,23.95,West,262,0.0,0.0,33,0.00,,---,0.00,VWS V14.01,2013-02-17 08:08:00,
2013-02-17 01:13:00,28.9,4.1,23.95,West,262,0.0,0.0,34,0.00,,---,0.00,VWS V14.01,2013-02-17 08:13:00,
2013-02-17 01:19:00,28.8,4.6,23.95,West,262,0.0,0.0,35,0.00,,---,0.00,VWS V14.01,2013-02-17 08:19:00,
2013-02-17 01:24:00,28.6,5.0,23.95,West,262,0.0,0.0,36,0.00,,---,0.00,VWS V14.01,2013-02-17 08:24:00,
2013-02-17 01:29:00,28.2,4.7,23.95,West,262,0.0,0.0,36,0.00,,---,0.00,VWS V14.01,2013-02-17 08:29:00,
2013-02-17 01:34:00,28.0,5.1,23.95,West,262,0.0,0.0,37,0.00,,---,0.00,VWS V14.01,2013-02-17 08:34:00,
2013-02-17 01:40:00,27.9,5.0,23.95,West,262,0.0,0.0,37,0.00,,---,0.00,VWS V14.01,2013-02-17 08:40:00,
2013-02-17 01:45:00,27.9,5.6,23.95,West,262,0.0,0.0,38,0.00,,---,0.00,VWS V14.01,2013-02-17 08:45:00,
2013-02-17 01:51:00,27.9,5.6,23.95,West,262,0.0,0.0,38,0.00,,---,0.00,VWS V14.01,2013-02-17 08:51:00,
2013-02-17 01:56:00,28.0,6.3,23.95,West,264,3.6,3.6,39,0.00,,---,0.00,VWS V14.01,2013-02-17 08:56:00,
2013-02-17 02:02:00,28.4,6.1,23.95,West,275,0.0,2.2,38,0.00,,---,0.00,VWS V14.01,2013-02-17 09:02:00,
2013-02-17 02:07:00,28.4,7.2,23.95,West,272,2.7,2.7,40,0.00,,---,0.00,VWS V14.01,2013-02-17 09:07:00,
2013-02-17 02:13:00,28.6,6.2,23.95,West,272,2.7,3.1,38,0.00,,---,0.00,VWS V14.01,2013-02-17 09:13:00,
2013-02-17 02:18:00,28.9,5.9,23.95,West,272,4.0,4.9,37,0.00,,---,0.00,VWS V14.01,2013-02-17 09:18:00,
2013-02-17 02:24:00,29.5,5.8,23.95,West,279,2.7,5.4,36,0.00,,---,0.00,VWS V14.01,2013-02-17 09:24:00,
2013-02-17 02:29:00,29.8,6.2,23.92,West,266,2.7,4.0,36,0.00,,---,0.00,VWS V14.01,2013-02-17 09:29:00,
2013-02-17 02:35:00,30.2,5.9,23.92,West,280,2.7,4.9,35,0.00,,---,0.00,VWS V14.01,2013-02-17 09:35:00,
2013-02-17 02:40:00,30.0,6.3,23.92,SW,214,3.1,4.0,36,0.00,,---,0.00,VWS V14.01,2013-02-17 09:40:00,
2013-02-17 02:45:00,29.8,6.2,23.92,West,260,2.2,4.5,36,0.00,,---,0.00,VWS V14.01,2013-02-17 09:45:00,
2013-02-17 02:50:00,29.8,5.5,23.92,WSW,255,3.1,3.6,35,0.00,,---,0.00,VWS V14.01,2013-02-17 09:50:00,
2013-02-17 02:55:00,30.2,6.5,23.92,SW,222,4.0,4.0,36,0.00,,---,0.00,VWS V14.01,2013-02-17 09:55:00,
2013-02-17 03:01:00,30.2,5.9,23.92,SW,220,0.0,0.0,35,0.00,,---,0.00,VWS V14.01,2013-02-17 10:01:00,
2013-02-17 03:07:00,30.4,6.0,23.92,SSW,195,2.7,4.0,35,0.00,,---,0.00,VWS V14.01,2013-02-17 10:07:00,
2013-02-17 03:13:00,31.5,6.3,23.92,SSW,208,2.7,3.6,34,0.00,,---,0.00,VWS V14.01,2013-02-17 10:13:00,
2013-02-17 03:18:00,32.9,7.6,23.92,SSW,202,3.6,3.6,34,0.00,,---,0.00,VWS V14.01,2013-02-17 10:18:00,
2013-02-17 03:23:00,33.8,7.1,23.92,South,185,0.0,2.2,32,0.00,,---,0.00,VWS V14.01,2013-02-17 10:23:00,
2013-02-17 03:29:00,34.9,7.3,23.89,WSW,255,4.0,5.4,31,0.00,,---,0.00,VWS V14.01,2013-02-17 10:29:00,
2013-02-17 03:35:00,36.7,8.2,23.89,SW,219,2.2,3.6,30,0.00,,---,0.00,VWS V14.01,2013-02-17 10:35:00,
2013-02-17 03:40:00,37.2,8.6,23.89,SSW,203,2.7,5.8,30,0.00,,---,0.00,VWS V14.01,2013-02-17 10:40:00,
2013-02-17 03:46:00,37.4,8.1,23.89,South,175,3.1,3.6,29,0.00,,---,0.00,VWS V14.01,2013-02-17 10:46:00,
2013-02-17 03:52:00,37.4,8.1,23.89,SW,232,3.1,4.0,29,0.00,,---,0.00,VWS V14.01,2013-02-17 10:52:00,
2013-02-17 03:57:00,37.0,8.5,23.89,SSW,202,2.7,4.9,30,0.00,,---,0.00,VWS V14.01,2013-02-17 10:57:00,
2013-02-17 04:03:00,36.1,7.7,23.89,SW,231,2.7,3.6,30,0.00,,---,0.00,VWS V14.01,2013-02-17 11:03:00,
2013-02-17 04:08:00,35.2,6.9,23.89,SW,218,3.6,4.9,30,0.00,,---,0.00,VWS V14.01,2013-02-17 11:08:00,
2013-02-17 04:14:00,34.2,6.0,23.89,SW,227,3.1,3.1,30,0.00,,---,0.00,VWS V14.01,2013-02-17 11:14:00,
2013-02-17 04:20:00,33.4,6.1,23.89,SW,224,3.6,3.6,31,0.00,,---,0.00,VWS V14.01,2013-02-17 11:20:00,
2013-02-17 04:25:00,33.1,5.8,23.89,SW,224,3.1,3.1,31,0.00,,---,0.00,VWS V14.01,2013-02-17 11:25:00,
2013-02-17 04:31:00,32.5,5.3,23.89,SW,224,3.1,3.1,31,0.00,,---,0.00,VWS V14.01,2013-02-17 11:31:00,
2013-02-17 04:36:00,31.8,4.6,23.89,SW,224,3.1,3.1,31,0.00,,---,0.00,VWS V14.01,2013-02-17 11:36:00,
2013-02-17 04:41:00,31.3,4.2,23.86,SW,232,3.6,3.6,31,0.00,,---,0.00,VWS V14.01,2013-02-17 11:41:00,
2013-02-17 04:46:00,31.5,4.3,23.86,WSW,247,2.7,4.0,31,0.00,,---,0.00,VWS V14.01,2013-02-17 11:46:00,
2013-02-17 04:51:00,31.3,4.2,23.86,WSW,247,2.7,3.6,31,0.00,,---,0.00,VWS V14.01,2013-02-17 11:51:00,
2013-02-17 04:57:00,31.1,4.0,23.86,SW,233,2.7,4.0,31,0.00,,---,0.00,VWS V14.01,2013-02-17 11:57:00,
2013-02-17 05:02:00,30.9,3.8,23.86,WSW,255,2.7,2.7,31,0.00,,---,0.00,VWS V14.01,2013-02-17 12:02:00,
2013-02-17 05:08:00,30.6,3.5,23.86,West,280,3.1,3.6,31,0.00,,---,0.00,VWS V14.01,2013-02-17 12:08:00,
2013-02-17 05:14:00,30.9,3.8,23.86,West,280,0.0,0.0,31,0.00,,---,0.00,VWS V14.01,2013-02-17 12:14:00,
2013-02-17 05:20:00,30.0,3.1,23.86,West,280,0.0,0.0,31,0.00,,---,0.00,VWS V14.01,2013-02-17 12:20:00,
2013-02-17 05:26:00,29.1,3.0,23.86,SSW,210,0.0,0.0,32,0.00,,---,0.00,VWS V14.01,2013-02-17 12:26:00,
2013-02-17 05:31:00,28.6,1.8,23.86,WNW,284,3.1,4.9,31,0.00,,---,0.00,VWS V14.01,2013-02-17 12:31:00,
2013-02-17 05:37:00,28.2,2.2,23.86,WNW,291,0.0,3.1,32,0.00,,---,0.00,VWS V14.01,2013-02-17 12:37:00,
2013-02-17 05:43:00,28.2,2.2,23.86,West,278,0.0,0.0,32,0.00,,---,0.00,VWS V14.01,2013-02-17 12:43:00,
2013-02-17 05:49:00,27.9,1.8,23.86,West,272,0.0,0.0,32,0.00,,---,0.00,VWS V14.01,2013-02-17 12:49:00,
2013-02-17 05:55:00,27.7,1.7,23.86,SW,235,0.0,0.0,32,0.00,,---,0.00,VWS V14.01,2013-02-17 12:55:00,
2013-02-17 06:00:00,27.7,1.7,23.86,West,261,0.0,0.0,32,0.00,,---,0.00,VWS V14.01,2013-02-17 13:00:00,
2013-02-17 06:06:00,27.9,1.8,23.86,West,272,3.1,3.1,32,0.00,,---,0.00,VWS V14.01,2013-02-17 13:06:00,
2013-02-17 06:12:00,28.2,2.2,23.86,SSW,212,0.0,0.0,32,0.00,,---,0.00,VWS V14.01,2013-02-17 13:12:00,
2013-02-17 06:17:00,27.9,1.8,23.86,SSW,196,4.0,4.0,32,0.00,,---,0.00,VWS V14.01,2013-02-17 13:17:00,
2013-02-17 06:23:00,27.7,1.7,23.86,SSW,205,4.0,4.0,32,0.00,,---,0.00,VWS V14.01,2013-02-17 13:23:00,
2013-02-17 06:29:00,27.7,1.7,23.83,West,274,3.6,5.8,32,0.00,,---,0.00,VWS V14.01,2013-02-17 13:29:00,
2013-02-17 06:35:00,29.1,2.3,23.83,West,260,4.0,4.0,31,0.00,,---,0.00,VWS V14.01,2013-02-17 13:35:00,
2013-02-17 06:41:00,30.6,3.5,23.83,WNW,298,2.2,2.2,31,0.00,,---,0.00,VWS V14.01,2013-02-17 13:41:00,
2013-02-17 06:46:00,31.3,3.5,23.83,West,265,2.7,3.6,30,0.00,,---,0.00,VWS V14.01,2013-02-17 13:46:00,
2013-02-17 06:52:00,31.1,4.0,23.83,WSW,240,3.1,3.1,31,0.00,,---,0.00,VWS V14.01,2013-02-17 13:52:00,
2013-02-17 06:58:00,30.4,2.7,23.83,ESE,108,2.7,3.1,30,0.00,,---,0.00,VWS V14.01,2013-02-17 13:58:00,
2013-02-17 07:04:00,30.4,3.4,23.83,West,266,2.2,2.7,31,0.00,,---,0.00,VWS V14.01,2013-02-17 14:04:00,
2013-02-17 07:09:00,30.0,3.1,23.83,SW,220,5.4,5.4,31,0.00,,---,0.00,VWS V14.01,2013-02-17 14:09:00,
2013-02-17 07:15:00,29.5,2.6,23.83,WNW,289,4.0,4.0,31,0.00,,---,0.00,VWS V14.01,2013-02-17 14:15:00,
2013-02-17 07:21:00,29.7,2.7,23.83,SW,223,0.0,3.6,31,0.00,,---,0.00,VWS V14.01,2013-02-17 14:21:00,
2013-02-17 07:27:00,28.9,2.8,23.80,SW,223,0.0,0.0,32,0.00,,---,0.00,VWS V14.01,2013-02-17 14:27:00,
2013-02-17 07:32:00,28.6,2.5,23.80,SW,223,0.0,0.0,32,0.00,,---,0.00,VWS V14.01,2013-02-17 14:32:00,
2013-02-17 07:38:00,28.8,2.6,23.80,SW,222,3.6,4.0,32,0.00,,---,0.00,VWS V14.01,2013-02-17 14:38:00,
2013-02-17 07:44:00,28.8,2.6,23.80,West,264,2.2,3.1,32,0.00,,---,0.00,VWS V14.01,2013-02-17 14:44:00,
2013-02-17 07:50:00,28.6,2.5,23.80,South,169,0.0,0.0,32,0.00,,---,0.00,VWS V14.01,2013-02-17 14:50:00,
2013-02-17 07:56:00,28.9,2.8,23.80,WNW,288,4.0,4.0,32,0.00,,---,0.00,VWS V14.01,2013-02-17 14:56:00,
2013-02-17 08:01:00,29.8,3.6,23.80,SE,137,2.7,3.1,32,0.00,,---,0.00,VWS V14.01,2013-02-17 15:01:00,
2013-02-17 08:07:00,30.4,3.4,23.80,SSW,206,0.0,2.2,31,0.00,,---,0.00,VWS V14.01,2013-02-17 15:07:00,
2013-02-17 08:13:00,31.5,4.3,23.80,ENE,66,0.0,0.0,31,0.00,,---,0.00,VWS V14.01,2013-02-17 15:13:00,
2013-02-17 08:18:00,31.5,4.3,23.80,East,87,0.0,0.0,31,0.00,,---,0.00,VWS V14.01,2013-02-17 15:18:00,
2013-02-17 08:24:00,31.6,4.5,23.80,East,87,0.0,0.0,31,0.00,,---,0.00,VWS V14.01,2013-02-17 15:24:00,
2013-02-17 08:30:00,32.5,5.3,23.77,SSW,192,0.0,2.7,31,0.00,,---,0.00,VWS V14.01,2013-02-17 15:30:00,
2013-02-17 08:35:00,32.7,5.4,23.77,SSW,192,0.0,0.0,31,0.00,,---,0.00,VWS V14.01,2013-02-17 15:35:00,
2013-02-17 08:41:00,32.2,5.0,23.77,WNW,286,2.7,3.6,31,0.00,,---,0.00,VWS V14.01,2013-02-17 15:41:00,
2013-02-17 08:47:00,32.5,6.0,23.77,SW,219,2.7,2.7,32,0.00,,---,0.00,VWS V14.01,2013-02-17 15:47:00,
2013-02-17 08:52:00,32.7,5.4,23.77,NE,41,3.1,3.6,31,0.00,,---,0.00,VWS V14.01,2013-02-17 15:52:00,
2013-02-17 08:57:00,33.8,6.4,23.77,ENE,70,2.7,4.0,31,0.00,,---,0.00,VWS V14.01,2013-02-17 15:57:00,
2013-02-17 09:03:00,36.1,7.7,23.77,SE,143,4.9,6.3,30,0.00,,---,0.00,VWS V14.01,2013-02-17 16:03:00,
2013-02-17 09:09:00,39.2,8.9,23.77,ESE,122,4.0,4.0,28,0.00,,---,0.00,VWS V14.01,2013-02-17 16:09:00,
2013-02-17 09:14:00,43.2,7.9,23.74,East,99,4.0,5.4,23,0.00,,---,0.00,VWS V14.01,2013-02-17 16:14:00,
2013-02-17 09:19:00,44.8,6.2,23.74,SE,129,5.8,6.3,20,0.00,,---,0.00,VWS V14.01,2013-02-17 16:19:00,
2013-02-17 09:25:00,46.2,9.5,23.74,SSE,160,7.6,8.1,22,0.00,,---,0.00,VWS V14.01,2013-02-17 16:25:00,
2013-02-17 09:30:00,47.8,7.6,23.74,SSE,158,5.8,5.8,19,0.00,,---,0.00,VWS V14.01,2013-02-17 16:30:00,
2013-02-17 09:36:00,50.2,9.5,23.74,SSE,153,5.8,5.8,19,0.00,,---,0.00,VWS V14.01,2013-02-17 16:36:00,
2013-02-17 09:41:00,51.3,10.4,23.74,SE,143,4.9,4.9,19,0.00,,---,0.00,VWS V14.01,2013-02-17 16:41:00,
2013-02-17 09:47:00,52.0,9.8,23.74,SSW,200,5.8,5.8,18,0.00,,---,0.00,VWS V14.01,2013-02-17 16:47:00,
2013-02-17 09:53:00,52.3,10.1,23.74,SSW,204,5.4,7.2,18,0.00,,---,0.00,VWS V14.01,2013-02-17 16:53:00,
2013-02-17 09:58:00,52.5,10.2,23.74,South,190,3.1,5.8,18,0.00,,---,0.00,VWS V14.01,2013-02-17 16:58:00,
2013-02-17 10:04:00,53.2,10.9,23.74,West,262,5.8,10.5,18,0.00,,---,0.00,VWS V14.01,2013-02-17 17:04:00,
2013-02-17 10:10:00,54.0,11.4,23.74,East,93,5.4,6.3,18,0.00,,---,0.00,VWS V14.01,2013-02-17 17:10:00,
2013-02-17 10:16:00,54.5,11.9,23.74,SSW,195,10.5,10.5,18,0.00,,---,0.00,VWS V14.01,2013-02-17 17:16:00,
2013-02-17 10:21:00,54.7,12.0,23.74,SW,222,7.2,7.2,18,0.00,,---,0.00,VWS V14.01,2013-02-17 17:21:00,
2013-02-17 10:27:00,55.0,12.3,23.74,NW,322,3.6,4.9,18,0.00,,---,0.00,VWS V14.01,2013-02-17 17:27:00,
2013-02-17 10:33:00,55.2,12.5,23.74,South,190,8.3,8.3,18,0.00,,---,0.00,VWS V14.01,2013-02-17 17:33:00,
2013-02-17 10:39:00,55.0,12.3,23.74,NE,37,5.8,14.5,18,0.00,,---,0.00,VWS V14.01,2013-02-17 17:39:00,
2013-02-17 10:44:00,55.4,11.3,23.71,South,175,5.4,8.3,17,0.00,,---,0.00,VWS V14.01,2013-02-17 17:44:00,
2013-02-17 10:50:00,55.2,12.5,23.71,South,182,3.1,6.3,18,0.00,,---,0.00,VWS V14.01,2013-02-17 17:50:00,
2013-02-17 10:55:00,55.4,11.3,23.71,SW,230,5.8,8.7,17,0.00,,---,0.00,VWS V14.01,2013-02-17 17:55:00,
2013-02-17 11:00:00,55.4,11.3,23.71,SSE,160,3.6,5.4,17,0.00,,---,0.00,VWS V14.01,2013-02-17 18:00:00,
2013-02-17 11:06:00,55.4,11.3,23.71,SSE,154,2.2,8.7,17,0.00,,---,0.00,VWS V14.01,2013-02-17 18:06:00,
2013-02-17 11:12:00,55.4,11.3,23.71,North,11,5.4,14.5,17,0.00,,---,0.00,VWS V14.01,2013-02-17 18:12:00,
2013-02-17 11:18:00,55.6,11.5,23.71,NNE,16,4.5,6.3,17,0.00,,---,0.00,VWS V14.01,2013-02-17 18:18:00,
2013-02-17 11:23:00,55.2,12.5,23.71,SW,229,8.3,10.1,18,0.00,,---,0.00,VWS V14.01,2013-02-17 18:23:00,
2013-02-17 11:29:00,55.2,12.5,23.71,WNW,287,7.6,10.5,18,0.00,,---,0.00,VWS V14.01,2013-02-17 18:29:00,
2013-02-17 11:34:00,55.4,11.3,23.71,SSW,202,4.0,5.8,17,0.00,,---,0.00,VWS V14.01,2013-02-17 18:34:00,
2013-02-17 11:40:00,55.8,11.6,23.71,SSW,212,3.1,8.3,17,0.00,,---,0.00,VWS V14.01,2013-02-17 18:40:00,
2013-02-17 11:46:00,55.6,11.5,23.71,West,261,7.6,7.6,17,0.00,,---,0.00,VWS V14.01,2013-02-17 18:46:00,
2013-02-17 11:52:00,55.6,11.5,23.71,East,96,4.9,10.5,17,0.00,,---,0.00,VWS V14.01,2013-02-17 18:52:00,
2013-02-17 11:58:00,55.8,11.6,23.68,SW,227,8.3,14.5,17,0.00,,---,0.00,VWS V14.01,2013-02-17 18:58:00,
2013-02-17 12:03:00,56.1,11.9,23.68,South,183,5.4,5.4,17,0.00,,---,0.00,VWS V14.01,2013-02-17 19:03:00,
2013-02-17 12:09:00,56.3,12.1,23.68,South,177,10.5,15.0,17,0.00,,---,0.00,VWS V14.01,2013-02-17 19:09:00,
2013-02-17 12:15:00,56.3,12.1,23.68,NNW,329,8.7,10.5,17,0.00,,---,0.00,VWS V14.01,2013-02-17 19:15:00,
2013-02-17 12:20:00,56.5,12.2,23.68,East,97,7.6,11.0,17,0.00,,---,0.00,VWS V14.01,2013-02-17 19:20:00,
2013-02-17 12:26:00,56.8,12.5,23.65,SW,231,6.3,8.3,17,0.00,,---,0.00,VWS V14.01,2013-02-17 19:26:00,
2013-02-17 12:31:00,57.2,12.8,23.65,WNW,283,8.1,8.1,17,0.00,,---,0.00,VWS V14.01,2013-02-17 19:31:00,
2013-02-17 12:37:00,56.8,12.5,23.65,East,100,3.1,7.6,17,0.00,,---,0.00,VWS V14.01,2013-02-17 19:37:00,
2013-02-17 12:42:00,57.0,12.7,23.65,NNW,338,7.6,13.2,17,0.00,,---,0.00,VWS V14.01,2013-02-17 19:42:00,
2013-02-17 12:48:00,57.2,12.8,23.65,SSW,209,4.0,8.3,17,0.00,,---,0.00,VWS V14.01,2013-02-17 19:48:00,
2013-02-17 12:53:00,57.2,12.8,23.65,SSE,153,7.6,17.4,17,0.00,,---,0.00,VWS V14.01,2013-02-17 19:53:00,
2013-02-17 12:58:00,57.4,12.9,23.65,South,182,6.3,11.0,17,0.00,,---,0.00,VWS V14.01,2013-02-17 19:58:00,
2013-02-17 13:04:00,57.0,12.7,23.65,SW,231,7.2,25.5,17,0.00,,---,0.00,VWS V14.01,2013-02-17 20:04:00,
2013-02-17 13:09:00,57.2,12.8,23.65,South,177,8.1,10.1,17,0.00,,---,0.00,VWS V14.01,2013-02-17 20:09:00,
2013-02-17 13:15:00,57.2,12.8,23.65,SSE,157,10.1,10.1,17,0.00,,---,0.00,VWS V14.01,2013-02-17 20:15:00,
2013-02-17 13:21:00,57.6,13.1,23.65,South,175,8.1,8.1,17,0.00,,---,0.00,VWS V14.01,2013-02-17 20:21:00,
2013-02-17 13:27:00,57.4,12.9,23.62,South,174,5.8,6.3,17,0.00,,---,0.00,VWS V14.01,2013-02-17 20:27:00,
2013-02-17 13:33:00,57.2,12.8,23.62,SE,139,4.9,10.1,17,0.00,,---,0.00,VWS V14.01,2013-02-17 20:33:00,
2013-02-17 13:39:00,57.7,13.2,23.62,South,174,4.9,4.9,17,0.00,,---,0.00,VWS V14.01,2013-02-17 20:39:00,
2013-02-17 13:44:00,57.9,13.4,23.62,SSE,167,5.8,5.8,17,0.00,,---,0.00,VWS V14.01,2013-02-17 20:44:00,
2013-02-17 13:50:00,57.7,13.2,23.62,East,79,6.3,8.7,17,0.00,,---,0.00,VWS V14.01,2013-02-17 20:50:00,
2013-02-17 13:56:00,57.6,13.1,23.62,South,179,4.0,8.1,17,0.00,,---,0.00,VWS V14.01,2013-02-17 20:56:00,
2013-02-17 14:01:00,57.9,13.4,23.62,SSW,202,5.4,5.8,17,0.00,,---,0.00,VWS V14.01,2013-02-17 21:01:00,
2013-02-17 14:07:00,57.2,12.8,23.62,SSW,202,8.3,10.1,17,0.00,,---,0.00,VWS V14.01,2013-02-17 21:07:00,
2013-02-17 14:13:00,57.9,13.4,23.62,NNW,329,3.6,6.7,17,0.00,,---,0.00,VWS V14.01,2013-02-17 21:13:00,
2013-02-17 14:19:00,57.9,13.4,23.62,SW,214,7.6,8.7,17,0.00,,---,0.00,VWS V14.01,2013-02-17 21:19:00,
2013-02-17 14:25:00,58.1,13.5,23.62,SE,136,5.4,10.1,17,0.00,,---,0.00,VWS V14.01,2013-02-17 21:25:00,
2013-02-17 14:31:00,57.6,13.1,23.62,WSW,255,8.3,8.3,17,0.00,,---,0.00,VWS V14.01,2013-02-17 21:31:00,
2013-02-17 14:37:00,57.2,12.8,23.62,South,178,3.1,7.6,17,0.00,,---,0.00,VWS V14.01,2013-02-17 21:37:00,
2013-02-17 14:43:00,56.7,12.4,23.62,West,273,4.0,4.9,17,0.00,,---,0.00,VWS V14.01,2013-02-17 21:43:00,
2013-02-17 14:49:00,55.9,11.8,23.62,WSW,250,5.4,6.3,17,0.00,,---,0.00,VWS V14.01,2013-02-17 21:49:00,
2013-02-17 14:55:00,54.9,12.2,23.62,South,187,5.4,5.4,18,0.00,,---,0.00,VWS V14.01,2013-02-17 21:55:00,
2013-02-17 15:00:00,53.8,11.3,23.62,WNW,282,5.4,12.3,18,0.00,,---,0.00,VWS V14.01,2013-02-17 22:00:00,
2013-02-17 15:06:00,53.8,11.3,23.62,SW,236,5.4,6.3,18,0.00,,---,0.00,VWS V14.01,2013-02-17 22:06:00,
2013-02-17 15:12:00,53.6,11.1,23.62,SSE,158,5.4,5.4,18,0.00,,---,0.00,VWS V14.01,2013-02-17 22:12:00,
2013-02-17 15:18:00,53.4,11.0,23.62,SSE,160,9.6,10.5,18,0.00,,---,0.00,VWS V14.01,2013-02-17 22:18:00,
2013-02-17 15:23:00,53.4,11.0,23.62,SSW,194,8.7,11.4,18,0.00,,---,0.00,VWS V14.01,2013-02-17 22:23:00,
2013-02-17 15:28:00,53.8,11.3,23.62,South,189,8.3,8.3,18,0.00,,---,0.00,VWS V14.01,2013-02-17 22:28:00,
2013-02-17 15:34:00,53.2,10.9,23.62,West,264,6.3,6.3,18,0.00,,---,0.00,VWS V14.01,2013-02-17 22:34:00,
2013-02-17 15:40:00,53.1,10.7,23.59,SSW,197,4.0,8.7,18,0.00,,---,0.00,VWS V14.01,2013-02-17 22:40:00,
2013-02-17 15:46:00,53.1,10.7,23.59,SSW,203,4.0,6.3,18,0.00,,---,0.00,VWS V14.01,2013-02-17 22:46:00,
2013-02-17 15:52:00,52.9,10.6,23.59,SSE,155,4.9,8.1,18,0.00,,---,0.00,VWS V14.01,2013-02-17 22:52:00,
2013-02-17 15:58:00,52.3,10.1,23.59,South,185,5.8,7.6,18,0.00,,---,0.00,VWS V14.01,2013-02-17 22:58:00,
2013-02-17 16:04:00,52.2,10.0,23.59,SSW,199,3.6,6.3,18,0.00,,---,0.00,VWS V14.01,2013-02-17 23:04:00,
2013-02-17 16:09:00,51.8,9.7,23.59,SSW,203,8.3,8.3,18,0.00,,---,0.00,VWS V14.01,2013-02-17 23:09:00,
2013-02-17 16:15:00,51.4,10.6,23.62,NE,47,3.1,5.4,19,0.00,,---,0.00,VWS V14.01,2013-02-17 23:15:00,
2013-02-17 16:21:00,50.9,10.1,23.62,South,173,6.7,6.7,19,0.00,,---,0.00,VWS V14.01,2013-02-17 23:21:00,
2013-02-17 16:27:00,50.7,10.0,23.62,South,182,5.8,5.8,19,0.00,,---,0.00,VWS V14.01,2013-02-17 23:27:00,
2013-02-17 16:33:00,50.2,9.5,23.62,NW,315,4.0,5.8,19,0.00,,---,0.00,VWS V14.01,2013-02-17 23:33:00,
2013-02-17 16:39:00,50.0,9.4,23.62,SW,216,5.8,5.8,19,0.00,,---,0.00,VWS V14.01,2013-02-17 23:39:00,
2013-02-17 16:45:00,49.6,9.1,23.62,SW,223,3.6,7.6,19,0.00,,---,0.00,VWS V14.01,2013-02-17 23:45:00,
2013-02-17 16:51:00,49.3,8.8,23.62,SE,135,3.1,5.4,19,0.00,,---,0.00,VWS V14.01,2013-02-17 23:51:00,
2013-02-17 16:56:00,48.7,8.3,23.62,ESE,115,0.0,4.0,19,0.00,,---,0.00,VWS V14.01,2013-02-17 23:56:00,
2013-02-17 17:03:00,48.4,8.0,23.62,West,279,2.2,4.0,19,0.00,,---,0.00,VWS V14.01,2013-02-18 00:03:00,
2013-02-17 17:09:00,47.7,7.4,23.62,SE,135,2.2,5.8,19,0.00,,---,0.00,VWS V14.01,2013-02-18 00:09:00,
2013-02-17 17:15:00,47.1,7.0,23.62,NE,48,2.2,4.0,19,0.00,,---,0.00,VWS V14.01,2013-02-18 00:15:00,
2013-02-17 17:20:00,46.9,6.8,23.62,WSW,254,6.3,6.3,19,0.00,,---,0.00,VWS V14.01,2013-02-18 00:20:00,
2013-02-17 17:26:00,46.6,6.5,23.62,NW,307,2.2,5.8,19,0.00,,---,0.00,VWS V14.01,2013-02-18 00:26:00,
2013-02-17 17:32:00,45.5,6.8,23.62,SW,231,2.7,2.7,20,0.00,,---,0.00,VWS V14.01,2013-02-18 00:32:00,
2013-02-17 17:37:00,43.7,5.3,23.62,SW,229,0.0,0.0,20,0.00,,---,0.00,VWS V14.01,2013-02-18 00:37:00,
2013-02-17 17:43:00,42.3,5.1,23.62,SW,229,0.0,0.0,21,0.00,,---,0.00,VWS V14.01,2013-02-18 00:43:00,
2013-02-17 17:49:00,40.5,5.6,23.62,SW,229,0.0,0.0,23,0.00,,---,0.00,VWS V14.01,2013-02-18 00:49:00,
2013-02-17 17:55:00,39.4,4.7,23.62,SW,229,0.0,0.0,23,0.00,,---,0.00,VWS V14.01,2013-02-18 00:55:00,
2013-02-17 18:01:00,38.7,5.0,23.62,SW,229,0.0,0.0,24,0.00,,---,0.00,VWS V14.01,2013-02-18 01:01:00,
2013-02-17 18:06:00,37.8,4.2,23.62,WSW,240,0.0,0.0,24,0.00,,---,0.00,VWS V14.01,2013-02-18 01:06:00,
2013-02-17 18:12:00,37.0,3.6,23.62,WSW,240,0.0,0.0,24,0.00,,---,0.00,VWS V14.01,2013-02-18 01:12:00,
2013-02-17 18:18:00,36.5,3.2,23.62,WSW,240,0.0,0.0,24,0.00,,---,0.00,VWS V14.01,2013-02-18 01:18:00,
2013-02-17 18:24:00,36.1,5.4,23.62,WSW,238,0.0,0.0,27,0.00,,---,0.00,VWS V14.01,2013-02-18 01:24:00,
2013-02-17 18:30:00,35.8,5.1,23.65,WSW,251,2.7,2.7,27,0.00,,---,0.00,VWS V14.01,2013-02-18 01:30:00,
2013-02-17 18:35:00,35.8,5.1,23.65,WSW,251,2.2,2.7,27,0.00,,---,0.00,VWS V14.01,2013-02-18 01:35:00,
2013-02-17 18:41:00,35.6,4.9,23.65,WSW,251,2.2,3.1,27,0.00,,---,0.00,VWS V14.01,2013-02-18 01:41:00,
2013-02-17 18:46:00,35.4,4.8,23.65,WSW,251,3.1,3.1,27,0.00,,---,0.00,VWS V14.01,2013-02-18 01:46:00,
2013-02-17 18:52:00,35.1,4.5,23.65,WSW,251,2.7,3.1,27,0.00,,---,0.00,VWS V14.01,2013-02-18 01:52:00,
2013-02-17 18:58:00,34.9,4.3,23.65,WSW,251,3.1,3.1,27,0.00,,---,0.00,VWS V14.01,2013-02-18 01:58:00,
2013-02-17 19:04:00,34.5,4.0,23.65,WNW,300,2.2,3.6,27,0.00,,---,0.00,VWS V14.01,2013-02-18 02:04:00,
2013-02-17 19:10:00,34.2,3.7,23.65,WSW,258,2.7,3.1,27,0.00,,---,0.00,VWS V14.01,2013-02-18 02:10:00,
2013-02-17 19:16:00,33.8,3.4,23.65,WSW,258,3.1,3.1,27,0.00,,---,0.00,VWS V14.01,2013-02-18 02:16:00,
2013-02-17 19:22:00,33.8,3.4,23.65,West,277,3.1,3.1,27,0.00,,---,0.00,VWS V14.01,2013-02-18 02:22:00,
2013-02-17 19:27:00,34.0,3.5,23.65,West,275,2.7,3.1,27,0.00,,---,0.00,VWS V14.01,2013-02-18 02:27:00,
2013-02-17 19:33:00,33.8,3.4,23.65,West,275,3.1,3.1,27,0.00,,---,0.00,VWS V14.01,2013-02-18 02:33:00,
2013-02-17 19:39:00,33.8,3.4,23.65,West,264,3.1,3.1,27,0.00,,---,0.00,VWS V14.01,2013-02-18 02:39:00,
2013-02-17 19:45:00,34.0,5.8,23.65,West,265,2.2,2.7,30,0.00,,---,0.00,VWS V14.01,2013-02-18 02:45:00,
2013-02-17 19:51:00,33.3,5.2,23.65,West,265,2.7,3.1,30,0.00,,---,0.00,VWS V14.01,2013-02-18 02:51:00,
2013-02-17 19:57:00,32.7,4.7,23.65,West,266,0.0,2.2,30,0.00,,---,0.00,VWS V14.01,2013-02-18 02:57:00,
2013-02-17 20:02:00,32.4,4.4,23.65,West,266,0.0,0.0,30,0.00,,---,0.00,VWS V14.01,2013-02-18 03:02:00,
2013-02-17 20:08:00,31.8,3.9,23.65,West,266,0.0,0.0,30,0.00,,---,0.00,VWS V14.01,2013-02-18 03:08:00,
2013-02-17 20:13:00,31.5,3.6,23.65,West,266,0.0,0.0,30,0.00,,---,0.00,VWS V14.01,2013-02-18 03:13:00,
2013-02-17 20:18:00,31.3,3.5,23.65,West,266,0.0,0.0,30,0.00,,---,0.00,VWS V14.01,2013-02-18 03:18:00,
2013-02-17 20:24:00,30.9,3.8,23.65,West,266,0.0,0.0,31,0.00,,---,0.00,VWS V14.01,2013-02-18 03:24:00,
2013-02-17 20:30:00,30.6,3.5,23.68,SW,215,0.0,0.0,31,0.00,,---,0.00,VWS V14.01,2013-02-18 03:30:00,
2013-02-17 20:36:00,30.2,3.9,23.68,SW,215,0.0,0.0,32,0.00,,---,0.00,VWS V14.01,2013-02-18 03:36:00,
2013-02-17 20:42:00,29.7,3.4,23.68,SW,215,0.0,0.0,32,0.00,,---,0.00,VWS V14.01,2013-02-18 03:42:00,
2013-02-17 20:48:00,29.5,3.3,23.68,WSW,237,3.1,4.0,32,0.00,,---,0.00,VWS V14.01,2013-02-18 03:48:00,
2013-02-17 20:54:00,29.3,3.8,23.68,SSW,211,0.0,0.0,33,0.00,,---,0.00,VWS V14.01,2013-02-18 03:54:00,
2013-02-17 20:59:00,29.3,3.8,23.68,WSW,245,0.0,2.7,33,0.00,,---,0.00,VWS V14.01,2013-02-18 03:59:00,
2013-02-17 21:04:00,29.5,3.3,23.68,West,281,0.0,3.1,32,0.00,,---,0.00,VWS V14.01,2013-02-18 04:04:00,
2013-02-17 21:10:00,30.0,4.4,23.71,WNW,293,2.2,3.6,33,0.00,,---,0.00,VWS V14.01,2013-02-18 04:10:00,
2013-02-17 21:15:00,32.4,5.8,23.71,WSW,258,0.0,3.1,32,0.00,,---,0.00,VWS V14.01,2013-02-18 04:15:00,
2013-02-17 21:20:00,33.8,7.1,23.71,SE,138,0.0,0.0,32,0.00,,---,0.00,VWS V14.01,2013-02-18 04:20:00,
2013-02-17 21:25:00,34.9,7.3,23.71,SE,138,0.0,0.0,31,0.00,,---,0.00,VWS V14.01,2013-02-18 04:25:00,
2013-02-17 21:31:00,35.1,7.5,23.71,North,0,0.0,4.0,31,0.00,,---,0.00,VWS V14.01,2013-02-18 04:31:00,
2013-02-17 21:37:00,35.1,7.5,23.71,North,7,0.0,0.0,31,0.00,,---,0.00,VWS V14.01,2013-02-18 04:37:00,
2013-02-17 21:43:00,34.7,7.2,23.71,NNE,30,0.0,3.6,31,0.00,,---,0.00,VWS V14.01,2013-02-18 04:43:00,
2013-02-17 21:49:00,34.3,6.9,23.71,NNE,30,0.0,0.0,31,0.00,,---,0.00,VWS V14.01,2013-02-18 04:49:00,
2013-02-17 21:55:00,33.4,6.1,23.71,WNW,289,3.1,3.6,31,0.00,,---,0.00,VWS V14.01,2013-02-18 04:55:00,
2013-02-17 22:00:00,32.2,5.7,23.71,SW,218,0.0,3.1,32,0.00,,---,0.00,VWS V14.01,2013-02-18 05:00:00,
2013-02-17 22:01:00,32.2,5.7,23.71,SW,218,2.2,2.2,32,0.00,,---,0.00,VWS V14.01,2013-02-18 05:01:00,
2013-02-17 22:02:00,32.0,5.5,23.71,SW,218,0.0,2.2,32,0.00,,---,0.00,VWS V14.01,2013-02-18 05:02:00,
2013-02-17 22:08:00,30.9,5.2,23.71,SW,218,0.0,0.0,33,0.00,,---,0.00,VWS V14.01,2013-02-18 05:08:00,
2013-02-17 22:10:00,30.6,4.9,23.71,SW,218,0.0,0.0,33,0.00,,---,0.00,VWS V14.01,2013-02-18 05:10:00,
2013-02-17 22:15:00,29.8,4.9,23.71,SW,218,0.0,0.0,34,0.00,,---,0.00,VWS V14.01,2013-02-18 05:15:00,
2013-02-17 22:20:00,29.3,4.4,23.71,SW,218,0.0,0.0,34,0.00,,---,0.00,VWS V14.01,2013-02-18 05:20:00,
2013-02-17 22:26:00,29.1,4.9,23.71,SW,218,0.0,0.0,35,0.00,,---,0.00,VWS V14.01,2013-02-18 05:26:00,
2013-02-17 22:32:00,29.1,4.9,23.71,SW,218,0.0,0.0,35,0.00,,---,0.00,VWS V14.01,2013-02-18 05:32:00,
2013-02-17 22:38:00,28.9,5.3,23.71,WNW,284,0.0,0.0,36,0.00,,---,0.00,VWS V14.01,2013-02-18 05:38:00,
2013-02-17 22:43:00,28.6,5.0,23.71,WSW,250,2.7,4.0,36,0.00,,---,0.00,VWS V14.01,2013-02-18 05:43:00,
2013-02-17 22:49:00,28.4,5.5,23.71,WSW,250,0.0,0.0,37,0.00,,---,0.00,VWS V14.01,2013-02-18 05:49:00,
2013-02-17 22:55:00,28.4,6.1,23.74,WSW,250,0.0,0.0,38,0.00,,---,0.00,VWS V14.01,2013-02-18 05:55:00,
2013-02-17 23:00:00,28.2,5.9,23.74,WSW,250,0.0,0.0,38,0.00,,---,0.00,VWS V14.01,2013-02-18 06:00:00,
2013-02-17 23:06:00,28.4,6.6,23.74,WSW,250,0.0,0.0,39,0.00,,---,0.00,VWS V14.01,2013-02-18 06:06:00,
2013-02-17 23:12:00,28.6,6.8,23.74,WSW,250,0.0,0.0,39,0.00,,---,0.00,VWS V14.01,2013-02-18 06:12:00,
2013-02-17 23:18:00,28.9,7.1,23.74,NNE,15,3.6,3.6,39,0.00,,---,0.00,VWS V14.01,2013-02-18 06:18:00,
2013-02-17 23:24:00,30.0,8.1,23.74,SSW,206,0.0,0.0,39,0.00,,---,0.00,VWS V14.01,2013-02-18 06:24:00,
2013-02-17 23:30:00,30.9,8.3,23.74,SW,235,4.0,4.0,38,0.00,,---,0.00,VWS V14.01,2013-02-18 06:30:00,
2013-02-17 23:36:00,30.2,7.7,23.74,SW,220,0.0,2.7,38,0.00,,---,0.00,VWS V14.01,2013-02-18 06:36:00,
2013-02-17 23:42:00,30.4,7.2,23.74,WSW,250,0.0,0.0,37,0.00,,---,0.00,VWS V14.01,2013-02-18 06:42:00,
2013-02-17 23:47:00,30.4,6.6,23.74,WSW,250,0.0,0.0,36,0.00,,---,0.00,VWS V14.01,2013-02-18 06:47:00,
2013-02-17 23:53:00,30.7,6.3,23.74,ENE,69,2.2,6.3,35,0.00,,---,0.00,VWS V14.01,2013-02-18 06:53:00,
2013-02-17 23:59:00,31.5,7.0,23.74,NNE,33,0.0,0.0,35,0.00,,---,0.00,VWS V14.01,2013-02-18 06:59:00,